Location: ?ernice
(48.8383°N, 14.3803°E)
Time: 16:22:23
(UTC+00:00)

Cosmos 1400 Rocket - Pass Details

Date: 23 May 2024
Orbit: 501 x 544 km, 81.2° (Epoch: 13 June)

Event Time Altitude Azimuth Distance (km) Brightness Sun altitude
Exits shadow 00:32:26 23° 257° (WSW) 1,198 4.2 -17.5°
Maximum altitude 00:33:46 28° 291° (WNW) 1,052 4.2 -17.4°
Drops below altitude 10° 00:37:15 10° 351° (N) 1,817 6.3 -17.2°
Sets 00:39:39 0° 3° (N) 2,709 7.7 -17.0°
